TimeEDT,TemperatureF,Dew PointF,Humidity,Sea Level PressureIn,VisibilityMPH,Wind Direction,Wind SpeedMPH,Gust SpeedMPH,PrecipitationIn,Events,Conditions,WindDirDegrees,DateUTC
12:52 AM,75.9,72.0,87,29.81,10.0,Calm,Calm,-,N/A,,Scattered Clouds,0,2013-07-24 04:52:00
1:52 AM,73.9,72.0,93,29.79,10.0,Calm,Calm,-,N/A,,Overcast,0,2013-07-24 05:52:00
2:52 AM,73.9,72.0,93,29.78,10.0,Calm,Calm,-,N/A,,Overcast,0,2013-07-24 06:52:00
3:52 AM,73.9,72.0,93,29.76,10.0,Calm,Calm,-,N/A,,Overcast,0,2013-07-24 07:52:00
4:52 AM,72.0,71.1,97,29.75,9.0,Calm,Calm,-,N/A,,Overcast,0,2013-07-24 08:52:00
5:52 AM,71.1,71.1,100,29.76,6.0,Calm,Calm,-,N/A,,Scattered Clouds,0,2013-07-24 09:52:00
6:52 AM,71.1,70.0,96,29.78,7.0,Calm,Calm,-,N/A,,Partly Cloudy,0,2013-07-24 10:52:00
7:52 AM,75.9,72.0,87,29.80,10.0,Calm,Calm,-,N/A,,Partly Cloudy,0,2013-07-24 11:52:00
8:52 AM,78.1,71.1,79,29.83,10.0,NNW,3.5,-,N/A,,Scattered Clouds,330,2013-07-24 12:52:00
9:52 AM,82.9,71.1,67,29.82,10.0,Variable,4.6,-,N/A,,Scattered Clouds,0,2013-07-24 13:52:00
10:52 AM,84.9,71.1,63,29.82,10.0,North,6.9,-,N/A,,Scattered Clouds,10,2013-07-24 14:52:00
11:52 AM,88.0,70.0,55,29.81,10.0,NNE,5.8,-,N/A,,Scattered Clouds,20,2013-07-24 15:52:00
12:52 PM,89.1,69.1,52,29.81,10.0,North,4.6,-,N/A,,Scattered Clouds,350,2013-07-24 16:52:00
1:52 PM,89.1,68.0,50,29.80,10.0,Variable,3.5,-,N/A,,Scattered Clouds,0,2013-07-24 17:52:00
2:52 PM,91.0,69.1,48,29.78,10.0,Variable,5.8,-,N/A,,Mostly Cloudy,0,2013-07-24 18:52:00
3:52 PM,91.0,66.9,45,29.77,10.0,NE,4.6,-,N/A,,Scattered Clouds,50,2013-07-24 19:52:00
4:52 PM,91.0,69.1,48,29.75,10.0,West,4.6,-,N/A,,Scattered Clouds,270,2013-07-24 20:52:00
5:52 PM,90.0,70.0,52,29.75,10.0,WNW,4.6,-,N/A,,Mostly Cloudy,300,2013-07-24 21:52:00
6:21 PM,87.8,71.6,58,29.78,10.0,Calm,Calm,-,0.00,Rain-Thunderstorm,Light Thunderstorms and Rain,0,2013-07-24 22:21:00
6:52 PM,82.0,60.1,47,29.76,10.0,SE,15.0,20.7,0.00,Thunderstorm,Thunderstorm,130,2013-07-24 22:52:00
7:02 PM,78.8,60.8,54,29.79,10.0,SE,13.8,-,N/A,,Mostly Cloudy,140,2013-07-24 23:02:00
7:34 PM,73.4,69.8,88,29.83,4.0,SW,10.4,19.6,0.05,Rain-Thunderstorm,Thunderstorms and Rain,230,2013-07-24 23:34:00
7:52 PM,72.0,69.1,91,29.81,5.0,South,11.5,-,0.07,Rain-Thunderstorm,Thunderstorms and Rain,190,2013-07-24 23:52:00
8:26 PM,71.6,69.8,94,29.85,2.5,WSW,9.2,-,0.13,Rain-Thunderstorm,Heavy Thunderstorms and Rain,250,2013-07-25 00:26:00
8:40 PM,71.6,68.0,88,29.86,3.0,SW,6.9,-,0.21,Rain-Thunderstorm,Heavy Thunderstorms and Rain,220,2013-07-25 00:40:00
8:52 PM,70.0,68.0,93,29.83,4.0,West,11.5,-,0.39,Rain-Thunderstorm,Heavy Thunderstorms and Rain,260,2013-07-25 00:52:00
9:49 PM,71.6,68.0,88,29.89,4.0,Calm,Calm,-,0.40,Rain,Rain,0,2013-07-25 01:49:00
9:52 PM,70.0,68.0,93,29.87,5.0,WNW,5.8,-,0.40,Rain,Light Rain,300,2013-07-25 01:52:00
10:52 PM,71.1,69.1,93,29.84,10.0,North,4.6,-,0.00,,Mostly Cloudy,350,2013-07-25 02:52:00
11:52 PM,71.1,70.0,96,29.85,10.0,Calm,Calm,-,N/A,,Overcast,0,2013-07-25 03:52:00